ICEYE-X33

operational
NORAD ID: 60548 Int'l Des: 2024-149 Owner: ICEUS/ICEYE Country: US Constellation: iceye
LEOCIRCULARRETROGRADESSO

关于 ICEYE-X33

正在加载描述...

实时位置

正在加载3D地球...

即将过境

高度历史

Altitude vs Time

uPlot chart will show altitude changes over time

两行轨道根数

1 60548U 24149CJ 26095.17184655 .00006977 00000-0 54460-3 0 9993
2 60548 97.7061 174.8040 0005148 50.6965 309.4715 15.01441896 89250
Epoch: Apr 5, 2026 • Age: 16 hours

当前状态

高度 563.4 km
速度 7.58 km/s
星下点 -1.50°S, 39.85°E
发射日期 Aug 16, 2024
运行时间 1.6 years
类型 earth observation

技术详情

分类 Payload
质量 80.00 kg
干质量 80.00 kg
总质量 80.00 kg
长度 0.80 m
直径 0.60 m
跨度 1.50 m
形状 Box + pan
制造商 ICEYE
平台类型 ICEYE
阶段状态 In Orbit
所有者/国家 ICEUS/ICEYE/US

大型星座

Loading constellations...